Flag for Argentina Weather past 2 weeks in Comodoro Rivadavia, Chubut, Argentina

Now
52 °F

Clear.


Feels Like: 49 °F
Forecast: 52 / 63 °F
Wind: 8 mph from Northeast

Location: Comodoro Rivadavia Aerodrome

Current Time: Aug 27, 2015 at 9:50:25 PM

Latest Report: Aug 27, 2015 at 9:00 PM


Visibility: 10 mi

Pressure: 29.45 "Hg

Humidity: 67%

Dew point: 41 °F

Location of Comodoro RivadaviaLocation

Historic Weather in Comodoro Rivadavia — Graph

°F

Comodoro Rivadavia temperature yesterday

Maximum temperature yesterday: 59 °F (at 4:00 PM)
Minimum temperature yesterday: 41 °F (at 1:00 AM)
Average temperature yesterday: 49 °F

Past Weeks' High & Low Weather Summary

 TemperatureHumidityPressure
High64 °F (Aug 17, 2:00 PM)100% (Aug 21, 10:00 PM)30.57 "Hg (Aug 21, 10:00 PM)
Low30 °F (Aug 12, 10:00 PM)22% (Aug 15, 6:00 PM)29.27 "Hg (Aug 16, 6:00 PM)
Average47 °F67%29.85 "Hg
* Reported Aug 12 8:00 PM — Aug 27 8:00 PM, Comodoro Rivadavia, Weather by CustomWeather, © 2015

Note: Actual official high and low records may vary slightly from our data, if they occured in-between our weather recording intervals... More about our weather records

Advertising

Comodoro Rivadavia weather history for previous 24 hours

 ConditionsComfort  
Time TempWeatherWind HumidityBarometerVisibility
8:00 PM
Thu, Aug 27
52 °FClear.12 mph62%29.50 "Hg10 mi
7:00 PM54 °FClear.8 mph63%29.50 "Hg10 mi
6:00 PM52 °FClear.10 mph62%29.53 "Hg10 mi
5:00 PM54 °FSunny.9 mph63%29.56 "Hg10 mi
4:00 PM55 °FSunny.6 mph59%29.62 "Hg10 mi
3:00 PM55 °FSunny.12 mph51%29.65 "Hg10 mi
2:00 PM57 °FPassing clouds.6 mph44%29.71 "HgN/A
1:00 PM54 °FSunny.10 mph51%29.74 "Hg10 mi
12:00 PM52 °FOvercast.10 mph50%29.77 "HgN/A
11:00 AM50 °FSunny.9 mph58%29.80 "Hg10 mi
10:00 AM48 °FSunny.12 mph58%29.80 "Hg10 mi
9:00 AM46 °FPassing clouds.8 mph66%29.80 "HgN/A
8:00 AM45 °FPassing clouds.7 mph71%29.83 "HgN/A
7:00 AM43 °FClear.9 mph76%29.83 "Hg10 mi
6:00 AM45 °FClear.13 mph71%29.86 "Hg10 mi
5:00 AM45 °FClear.10 mph71%29.86 "Hg10 mi
4:00 AM45 °FClear.18 mph71%29.86 "Hg10 mi
3:00 AM48 °FClear.18 mph62%29.86 "Hg10 mi
2:00 AM50 °FClear.21 mph58%29.86 "Hg10 mi
1:00 AM50 °FClear.15 mph62%29.86 "Hg10 mi
12:00 AM50 °FClear.15 mph62%29.86 "Hg10 mi
11:00 PM
Wed, Aug 26
50 °FClear.9 mph67%29.86 "Hg10 mi
10:00 PM48 °FClear.14 mph71%29.83 "Hg10 mi
9:00 PM50 °FClear.14 mph62%29.80 "Hg10 mi
Weather by CustomWeather, © 2015

See weather overviewHow to use our weather pages